Location: Baller�as
(41.9020°N, 0.1554°W)
Time: 10:35:39
(UTC+00:00)

X-37B - Pass Details

Date: 10 August 2020
Orbit: 386 x 387 km, 45.0° (Epoch: 18 September)

Event Time Altitude Azimuth Distance (km) Brightness Sun altitude
Rises 20:26:53 0° 263° (W) 2,260 5.2 -13.8°
Reaches altitude 10° 20:28:58 10° 268° (W) 1,408 4.2 -14.1°
Maximum altitude 20:32:06 57° 348° (NNW) 459 1.1 -14.6°
Enters shadow 20:34:31 16° 65° (ENE) 1,128 2.6 -15.0°
